TimeCST,TemperatureF,Dew PointF,Humidity,Sea Level PressureIn,VisibilityMPH,Wind Direction,Wind SpeedMPH,Gust SpeedMPH,PrecipitationIn,Events,Conditions,WindDirDegrees,DateUTC
12:53 AM,21.0,15.1,78,30.11,5.0,NW,11.5,-,0.00,Snow,Light Snow,310,2012-12-29 06:53:00
1:19 AM,21.2,15.8,80,30.07,5.0,NW,13.8,-,0.00,Snow,Light Snow,320,2012-12-29 07:19:00
1:53 AM,19.9,14.0,78,30.13,5.0,NW,13.8,-,0.00,Snow,Light Snow,310,2012-12-29 07:53:00
2:53 AM,19.9,14.0,78,30.16,5.0,NW,10.4,-,0.00,,Haze,310,2012-12-29 08:53:00
3:53 AM,19.9,14.0,78,30.17,6.0,WNW,6.9,-,N/A,,Haze,300,2012-12-29 09:53:00
4:53 AM,19.9,14.0,78,30.18,7.0,WNW,11.5,-,N/A,,Overcast,300,2012-12-29 10:53:00
5:53 AM,19.9,12.9,74,30.21,8.0,WNW,11.5,-,N/A,,Overcast,300,2012-12-29 11:53:00
6:53 AM,19.0,12.9,77,30.23,10.0,WNW,6.9,-,N/A,,Overcast,290,2012-12-29 12:53:00
7:53 AM,18.0,12.0,78,30.27,7.0,WNW,11.5,-,N/A,,Overcast,300,2012-12-29 13:53:00
8:53 AM,19.0,12.9,77,30.28,6.0,WNW,8.1,-,N/A,,Haze,290,2012-12-29 14:53:00
9:53 AM,19.9,12.9,74,30.29,7.0,West,6.9,-,N/A,,Mostly Cloudy,280,2012-12-29 15:53:00
10:53 AM,21.9,12.9,68,30.31,10.0,West,9.2,-,N/A,,Scattered Clouds,280,2012-12-29 16:53:00
11:53 AM,25.0,14.0,63,30.30,10.0,West,8.1,-,N/A,,Partly Cloudy,270,2012-12-29 17:53:00
12:53 PM,28.0,14.0,56,30.27,10.0,WSW,9.2,-,N/A,,Clear,250,2012-12-29 18:53:00
1:53 PM,30.0,14.0,51,30.27,10.0,West,10.4,-,N/A,,Clear,260,2012-12-29 19:53:00
2:53 PM,32.0,15.1,50,30.27,10.0,West,8.1,-,N/A,,Clear,260,2012-12-29 20:53:00
3:53 PM,33.1,16.0,50,30.29,10.0,WSW,10.4,-,N/A,,Clear,250,2012-12-29 21:53:00
4:53 PM,30.0,17.1,59,30.28,10.0,SW,6.9,-,N/A,,Clear,230,2012-12-29 22:53:00
5:53 PM,27.0,16.0,63,30.29,10.0,SW,8.1,-,N/A,,Clear,220,2012-12-29 23:53:00
6:53 PM,27.0,15.1,61,30.31,10.0,SW,5.8,-,N/A,,Clear,220,2012-12-30 00:53:00
7:53 PM,24.1,14.0,65,30.31,10.0,South,5.8,-,N/A,,Clear,180,2012-12-30 01:53:00
8:53 PM,24.1,15.1,69,30.31,10.0,South,6.9,-,N/A,,Clear,190,2012-12-30 02:53:00
9:53 PM,24.1,15.1,69,30.30,10.0,South,5.8,-,N/A,,Clear,190,2012-12-30 03:53:00
10:53 PM,26.1,16.0,66,30.31,10.0,SSW,6.9,-,N/A,,Clear,210,2012-12-30 04:53:00
11:53 PM,24.8,15.8,69,30.29,10.0,SSW,6.9,-,N/A,,Clear,210,2012-12-30 05:53:00